Tracking 28911 objects as of 22-May-2024
HD Live streaming from Space Station
objects crossing your sky now

METEOR 1-23

Track METEOR 1-23 now!
10-day predictions
METEOR 1-23 is classified as:


NORAD ID: 8519
Int'l Code: 1975-124A
Perigee: 853.9 km
Apogee: 871.7 km
Inclination: 81.2 °
Period: 102.0 minutes
Semi major axis: 7233 km
RCS: 4.3645 m2 (large)
Launch date: December 25, 1975
Source: Commonwealth of Independent States (former USSR) (CIS)
Launch site: PLESETSK MISSILE AND SPACE COMPLEX (PKMTR)
Your satellite tracking list
Your tracking list is empty




NASA's NSSDC Master Catalog

Two Line Element Set (TLE):
1  8519U 75124A   24142.47159742  .00000394  00000-0  21175-3 0  9999
2  8519  81.2413 142.5284 0012315 312.0437  47.9685 14.11096618490427
Source of the keplerian elements: AFSPC